Weather History for KCYS - October, 2013

Change the Weather History Date:

Monday, October 14, 2013

  Actual Average Record
Temperature  
Mean Temperature 40 °F 47 °F  
Max Temperature 50 °F 59 °F 79 °F (1962)
Min Temperature 29 °F 34 °F 13 °F (1969)
Degree Days  
Heating Degree Days 25 18  
Month to date heating degree days 253 225  
Since 1 July heating degree days 435 506  
Cooling Degree Days 0 0  
Month to date cooling degree days 0 0  
Year to date cooling degree days 520 348  
Moisture  
Dew Point 36 °F    
Average Humidity 79    
Maximum Humidity 93    
Minimum Humidity 64    
Precipitation  
Precipitation 0.10 in 0.03 in 0.51 in (1947)
Month to date precipitation 1.44 0.48  
Year to date precipitation 16.82 14.41  
Snow  
Snow 0.00 in 0.20 in 6.40 in (1905)
Month to date snowfall 4.7 1.9  
Since 1 July snowfall 4.7 3.2  
Snow Depth 0.00 in    
Sea Level Pressure  
Sea Level Pressure 29.92 in    
Wind  
Wind Speed 14 mph (NNW)    
Max Wind Speed 30 mph    
Max Gust Speed 39 mph    
Visibility 9 miles    
Events Rain , Thunderstorm    
T = Trace of Precipitation, MM = Missing Value Source: NWS Daily Summary

Daily Weather History Graph

Daily Weather History Graph

Search for Another Location

Airport or City:

Trip Planner

Search our weather history database for the weather conditions in past years. The results will help you decide how hot, cold, wet, or windy it might be!

Date:

Astronomy

Oct. 14, 2013 Rise Set
Actual Time 7:10 AM MDT 6:19 PM MDT
Civil Twilight 6:42 AM MDT 6:47 PM MDT
Nautical Twilight 6:10 AM MDT 7:19 PM MDT
Astronomical Twilight 5:38 AM MDT 7:51 PM MDT
Moon 3:52 PM MDT (10/14) 2:27 AM MDT (10/14)
Length of Visible Light 12h 04m
Length of Day
11h 09m
Waxing Gibbous, 80% of the Moon is Illuminated
Oct 14
Waxing Gibbous
Oct 18
Full
Oct 26
Last Quarter
Nov 3
New
Nov 9
First Quarter

Hourly Weather History & Observations

Time (MDT) Temp. Windchill Dew Point Humidity Pressure Visibility Wind Dir Wind Speed Gust Speed Precip Events Conditions
12:03 AM 48.2 °F - 46.4 °F 93% 29.91 in 10.0 mi SE 8.1 mph - N/A   Mostly Cloudy
12:21 AM 50.0 °F - 48.2 °F 94% 29.90 in 9.0 mi SE 6.9 mph - N/A   Overcast
12:53 AM 50.0 °F - 48.0 °F 93% 29.76 in 8.0 mi SSW 4.6 mph - N/A   Overcast
1:27 AM 48.2 °F - 48.2 °F 100% 29.91 in 7.0 mi SW 3.5 mph - N/A   Overcast
1:40 AM 48.2 °F - 48.2 °F 100% 29.91 in 7.0 mi Calm Calm - N/A   Overcast
1:53 AM 48.9 °F - 46.9 °F 93% 29.75 in 7.0 mi Calm Calm - N/A   Overcast
2:11 AM 48.2 °F - 46.4 °F 93% 29.93 in 9.0 mi WNW 11.5 mph 19.6 mph N/A   Overcast
2:26 AM 48.2 °F - 41.0 °F 76% 29.92 in 10.0 mi NNW 12.7 mph 20.7 mph N/A   Overcast
2:53 AM 46.9 °F - 37.9 °F 71% 29.75 in 10.0 mi NNW 12.7 mph 20.7 mph N/A   Mostly Cloudy
3:53 AM 45.0 °F 41.2 °F 37.0 °F 74% 29.77 in 10.0 mi NNW 6.9 mph - N/A   Overcast
4:53 AM 44.1 °F 39.0 °F 39.0 °F 82% 29.75 in 5.0 mi WNW 9.2 mph 23.0 mph 0.00 in Rain Rain
5:30 AM 44.6 °F - 39.2 °F 81% 29.87 in 10.0 mi Calm Calm - 0.05 in Thunderstorm Overcast
5:53 AM 44.1 °F 40.1 °F 39.0 °F 82% 29.76 in 10.0 mi West 6.9 mph - 0.05 in   Overcast
6:53 AM 42.1 °F 36.6 °F 39.0 °F 89% 29.73 in 10.0 mi NNE 9.2 mph 18.4 mph 0.01 in   Mostly Cloudy
7:53 AM 42.1 °F 37.1 °F 39.0 °F 89% 29.75 in 10.0 mi North 8.1 mph - N/A   Scattered Clouds
8:16 AM 42.8 °F 36.6 °F 39.2 °F 87% 29.87 in 10.0 mi North 11.5 mph - N/A   Overcast
8:30 AM 42.8 °F 35.8 °F 39.2 °F 87% 29.88 in 10.0 mi North 13.8 mph 21.9 mph N/A   Overcast
8:53 AM 42.1 °F 35.7 °F 39.9 °F 92% 29.79 in 7.0 mi North 11.5 mph 19.6 mph N/A   Overcast
9:07 AM 41.0 °F 32.8 °F 39.2 °F 93% 29.88 in 1.0 mi North 16.1 mph 25.3 mph 0.00 in Rain Light Rain
9:53 AM 39.9 °F 30.5 °F 37.9 °F 93% 29.79 in 6.0 mi North 19.6 mph 27.6 mph 0.00 in Rain Light Rain
10:10 AM 39.2 °F 30.5 °F 37.4 °F 93% 29.89 in 10.0 mi North 16.1 mph 27.6 mph 0.00 in   Overcast
10:53 AM 37.0 °F 28.9 °F 35.1 °F 93% 29.85 in 5.0 mi NNW 12.7 mph 25.3 mph 0.03 in Rain Rain
11:53 AM 37.0 °F 25.4 °F 34.0 °F 89% 29.86 in 10.0 mi NNW 25.3 mph 33.4 mph 0.01 in   Mostly Cloudy
12:04 PM 37.4 °F 26.4 °F 33.8 °F 87% 29.93 in 10.0 mi North 23.0 mph 32.2 mph N/A   Mostly Cloudy
12:25 PM 37.4 °F 27.8 °F 33.8 °F 87% 29.94 in 10.0 mi NNW 17.3 mph 26.5 mph N/A   Mostly Cloudy
12:42 PM 39.2 °F 30.2 °F 33.8 °F 81% 29.94 in 10.0 mi NNW 17.3 mph 24.2 mph N/A   Overcast
12:53 PM 39.0 °F 30.3 °F 34.0 °F 82% 29.86 in 10.0 mi North 16.1 mph - N/A   Overcast
1:05 PM 39.2 °F 30.8 °F 33.8 °F 81% 29.94 in 10.0 mi North 15.0 mph 23.0 mph N/A   Overcast
1:32 PM 39.2 °F 30.8 °F 33.8 °F 81% 29.94 in 10.0 mi North 15.0 mph 26.5 mph N/A   Overcast
1:53 PM 39.0 °F 29.0 °F 34.0 °F 82% 29.88 in 10.0 mi North 20.7 mph 25.3 mph N/A   Overcast
2:19 PM 39.2 °F 29.8 °F 33.8 °F 81% 29.96 in 10.0 mi North 18.4 mph 27.6 mph N/A   Overcast
2:53 PM 39.0 °F 31.4 °F 33.1 °F 79% 29.91 in 10.0 mi North 12.7 mph 24.2 mph N/A   Overcast
3:03 PM 41.0 °F 31.9 °F 32.0 °F 70% 29.98 in 10.0 mi North 19.6 mph 33.4 mph N/A   Overcast
3:53 PM 37.9 °F 28.2 °F 32.0 °F 79% 29.96 in 10.0 mi North 18.4 mph 27.6 mph N/A   Overcast
4:53 PM 39.9 °F 29.2 °F 28.9 °F 65% 29.98 in 10.0 mi NNW 25.3 mph 34.5 mph N/A   Scattered Clouds
5:53 PM 39.0 °F 28.8 °F 28.0 °F 65% 30.02 in 10.0 mi NNW 21.9 mph 32.2 mph N/A   Partly Cloudy
6:53 PM 35.1 °F 25.2 °F 28.0 °F 76% 30.08 in 10.0 mi North 16.1 mph 26.5 mph N/A   Scattered Clouds
7:53 PM 35.1 °F 26.9 °F 27.0 °F 72% 30.11 in 10.0 mi North 11.5 mph 20.7 mph N/A   Mostly Cloudy
8:53 PM 32.0 °F 21.2 °F 26.1 °F 79% 30.16 in 10.0 mi North 16.1 mph 20.7 mph N/A   Clear
9:53 PM 30.9 °F 19.8 °F 25.0 °F 79% 30.19 in 10.0 mi North 16.1 mph 21.9 mph N/A   Clear
10:53 PM 30.0 °F 18.3 °F 25.0 °F 82% 30.21 in 10.0 mi NNW 17.3 mph 25.3 mph N/A   Clear
11:53 PM 30.0 °F 20.0 °F 24.1 °F 79% 30.22 in 10.0 mi North 12.7 mph 20.7 mph N/A   Clear